User: anonymous   Login
Location: Austin
(30.3000°N, 97.7500°W)
Time: 14:33:04
(UTC-05:00)
Language:

Cosmos 2322 Rocket - Orbit

View from above orbital plane
View from above orbital plane
View from above satellite
View from above satellite

Ground track
Ground track

The orbit data is extracted from the following two-line orbital elements,

1 23705U 95058B   24151.29630974 -.00000155  00000-0 -55278-4 0  9991
2 23705  71.0218 101.3999 0011673  16.5076 343.6424 14.15319953476108
Epoch (UTC): 30 May 2024 07:06:41
Eccentricity: 0.0011673
inclination: 71.0218°
perigee height: 833 km
apogee height: 849 km
right ascension of ascending node: 101.3999°
argument of perigee: 16.5076°
revolutions per day: 14.15319953
mean anomaly at epoch: 343.6424°
orbit number at epoch: 47610

The dashed part of the orbit path shows where the satellite is in the earth's shadow,  

DLR